Weather Roundup
Issued by NWS

Home | Current Version | Previous Version | Text Only | Print | Product List | Glossary On
Versions: 1 2 3 4 5 6 7 8 9 10 11 12 13 14 15 16 17 18 19 20 21 22 23 24 25 26 27 28 29 30 31 32 33 34 35 36 37 38 39 40 41 42 43 44 45 46 47 48 49 50
000
NZUS93 KARX 222259
HRRWXR

CURRENT HOURLY OBSERVATIONS ACROSS
MUCH OF THE UPPER MISSISSIPPI VALLEY
NATIONAL WEATHER SERVICE LA CROSSE WI
600 PM CDT TUE JUL 22 2014


...SOUTHEAST MINNESOTA...


CITY           SKY/WX    TMP DP  RH WIND       PRES   REMARKS
ROCHESTER      MOSUNNY   80  64  58 NW14      30.08R
ROCHESTER/MAYO FAIR      80  60  50 NW8G20    30.06R
WINONA         SUNNY     82  64  54 NW15      30.02R
AUSTIN         MOSUNNY   82  63  51 NW13      30.07R
ALBERT LEA     SUNNY     81  63  54 NW8       30.09R
DODGE CENTER   SUNNY     81  64  57 NW12      30.08R
PRESTON        SUNNY     79  71  74 NW14      30.06R
OWATONNA       SUNNY     82  61  47 NW15      30.09R
FARIBAULT      SUNNY     84  55  37 NW7       30.09R
$$

...ELSEWHERE IN MINNESOTA...


CITY           SKY/WX    TMP DP  RH WIND       PRES   REMARKS
MINNEAPOLIS    MOSUNNY   83  59  44 NW10      30.07R
INTNL FALLS    MOSUNNY   74  52  46 NW13      30.10R
DULUTH         MOSUNNY   77  55  46 N10       30.08R
RED WING       MOSUNNY   84  59  42 NW7       30.04R
REDWOOD FALLS  SUNNY     82  56  40 NW10      30.13R
MANKATO        SUNNY     82  57  42 NW16      30.10R
WORTHINGTON    SUNNY     79  59  50 N15       30.18R
FAIRMONT       SUNNY     82  61  47 NW13G18   30.11S
$$

...SOUTHWEST WISCONSIN...


CITY           SKY/WX    TMP DP  RH WIND       PRES   REMARKS
LA CROSSE      SUNNY     87  66  49 NW16      29.99R
PRAIRIE DU CHI SUNNY     88  66  48 NW10      29.96R HX  90
BOSCOBEL       MOSUNNY   91  69  48 N13G18    29.96R HX  96
LONE ROCK      NOT AVBL
PLATTEVILLE    MOSUNNY   91  72  54 W8        29.96S HX  98
FORT MC COY    SUNNY     86  64  47 NW10G20   29.99R
VIROQUA        FAIR      83  67  59 NW13G20   30.01R
WIS DELLS      MOSUNNY   88  68  51 N12G18    29.95R HX  91
$$

...ELSEWHERE IN WISCONSIN...


CITY           SKY/WX    TMP DP  RH WIND       PRES   REMARKS
MILWAUKEE      PTSUNNY   87  74  64 SW14      29.90S HX  95
MADISON        MOSUNNY   92  75  57 W8        29.92R HX 103
GREEN BAY      SUNNY     88  67  49 NW13      29.90R HX  91
EAU CLAIRE     NOT AVBL
BLACK RVR FLS  FAIR      86  64  46 NW9       29.99R
MEDFORD        PTSUNNY   76  64  67 NW12      30.03R
WAUSAU         MOSUNNY   78  62  57 NW12G22   29.99R
WIS RAPIDS     PTSUNNY   82  65  56 NW14      30.00R
MARSHFIELD     PTSUNNY   78  63  59 NW13      30.02R
RICE LAKE      MOSUNNY   79  58  49 NW8       30.06R
$$

...NORTHEAST IOWA...


CITY           SKY/WX    TMP DP  RH WIND       PRES   REMARKS
WATERLOO       MOSUNNY   87  68  52 NW16      30.00R HX  90
DUBUQUE        MOSUNNY   88  75  65 W7        29.98R HX  97
DECORAH        SUNNY     82  68  61 N14       30.01R
MASON CITY     SUNNY     83  66  56 NW21      30.09R
CHARLES CITY   MOSUNNY   84  68  58 NW14      30.05R
OELWEIN        SUNNY     86  70  58 NW16G23   30.01S HX  90
$$

...ELSEWHERE IN IOWA...


CITY           SKY/WX    TMP DP  RH WIND       PRES   REMARKS
DES MOINES     PTSUNNY   88  71  57 N17       30.03R HX  94
IOWA CITY      PTSUNNY   89  78  70 W10       29.98S HX 103
FORT DODGE     SUNNY     82  66  57 N12       30.08F
MARSHALLTOWN   PTSUNNY   84  72  67 NW10      30.03R
CEDAR RAPIDS   PTSUNNY   88  77  69 NW14      29.97F HX 100
$$

...NORTHERN ILLINOIS...


CITY           SKY/WX    TMP DP  RH WIND       PRES   REMARKS
CHICAGO-OHARE  PTSUNNY   89  72  56 SW15G21   29.93F HX  96
DUPAGE         MOSUNNY   88  75  65 SW13      29.94F HX  97
CHICAGO-MIDWAY CLOUDY    88  75  65 SW16      29.95S HX  97
MOLINE         CLOUDY    85  78  80 SW9       29.95F HX  96
ROCKFORD       CLOUDY    87  77  72 SW8       29.95R HX  99
STERLING       PTSUNNY   84  77  79 W7        29.96R HX  94
PEORIA         PTSUNNY   85  73  67 SW9       29.99F HX  91
$$

NOTE: "FAIR" INDICATES FEW OR NO CLOUDS BELOW 12,000 FEET WITH NO
SIGNIFICANT WEATHER AND/OR OBSTRUCTIONS TO VISIBILITY. WIND
SPEEDS ARE IN MILES-PER-HOUR.



USA.gov is the U.S. government's official web portal to all federal, state and local government web resources and services.